Вернуться в каталог

STARLINK-36096

АктивенСвязьVLEO
NORAD 66949·PAYLOAD·🇺🇸 United States

Запущен Dec 7, 2025 с Vandenberg Space Force Base

Loading…

Ближайшие Пролёты (ближайшие 24 часа)

TLE

СвежийSource: CelesTrak SupGP

Эпоха: Sep 15, 2026, 03:27 UTC

1 66949C 25286AA  26258.14423611 -.00069319  00000+0 -20484-2 0  2589
2 66949  53.1576 194.4395 0001317  83.7765 134.7132 15.34419301    19

Отслеживайте STARLINK-36096 в реальном времени с AllMySat

Download on the App Store